Temperature
19 19 19 19 18 19 18 18 18 18 18 18 18 18 18 18 18 18 18 18 18 17 17 17 17 17 17 17 17 17 17 17 17 17 17 17 17 17 16 16 16 16 16
19 19 19 19 18 18 18 18 18 18 18 18 18 18 18 18 18 18 18 18 18 17 17 17 17 17 17 17 17 17 17 17 17 17 17 17 17 16 16 16 16 16 16
19 19 19 19 19 18 18 18 18 18 18 18 18 18 18 18 18 18 18 18 18 17 17 17 17 17 17 17 17 16 16 16 17 17 17 17 16 16 16 16 16 16 16
19 19 19 19 19 19 18 18 18 18 18 18 18 18 18 18 18 18 18 18 18 17 17 17 17 17 17 17 16 17 17 17 16 16 17 17 16 16 16 16 16 16 16
19 19 19 19 19 18 18 18 18 18 18 18 18 18 18 18 18 18 18 18 18 17 17 17 17 17 17 17 17 17 17 17 16 16 16 16 16 16 16 16 16 16 16
19 19 19 19 19 18 18 18 18 18 18 18 18 18 18 18 18 18 18 18 18 17 17 17 17 17 17 17 17 17 17 17 16 16 16 16 16 16 16 16 16 16 16
19 19 19 19 19 19 19 18 18 18 18 18 18 18 18 18 18 18 18 18 18 18 17 17 17 17 17 17 17 17 17 17 17 17 16 16 16 16 16 16 16 16 16
19 19 19 19 19 19 19 18 18 18 18 18 18 18 18 18 18 18 18 18 18 18 17 17 17 17 17 17 17 17 17 17 17 17 16 16 16 16 16 16 16 16 16
19 19 19 19 19 19 19 18 18 18 18 18 18 18 18 18 18 18 18 18 18 18 17 17 17 17 17 17 17 17 17 17 17 17 17 16 16 16 16 16 16 16 16
19 19 19 19 19 19 18 18 18 18 18 18 18 18 18 18 17 18 18 18 18 18 18 17 17 17 17 17 17 17 17 17 17 17 16 16 16 16 16 16 16 16 16
19 19 19 19 18 18 18 18 18 18 18 18 18 18 18 18 17 17 17 18 18 18 18 17 17 17 17 17 17 17 17 17 17 17 16 16 16 16 16 16 16 16 16
19 19 19 19 18 18 18 18 18 18 18 18 18 18 18 18 17 17 17 17 17 18 17 17 17 17 17 17 17 17 17 17 17 16 16 16 16 16 16 16 16 16 16
19 19 19 18 18 18 18 18 18 18 18 18 18 18 18 18 17 17 17 17 17 17 17 17 17 17 17 17 17 17 17 16 16 16 16 16 16 16 16 16 16 16 15
19 19 19 18 18 18 18 18 18 18 18 18 18 18 18 18 17 17 17 17 17 17 17 17 17 17 17 17 17 16 16 16 16 16 16 16 16 16 16 15 15 15 15
19 19 18 18 18 18 18 18 18 18 18 18 18 18 18 18 17 17 17 17 17 16 16 17 17 17 17 17 16 16 16 16 16 16 16 16 16 15 15 15 15 15 15
19 18 18 18 18 18 18 18 18 18 18 18 17 17 18 17 17 17 17 17 17 17 16 17 17 17 17 16 16 16 16 16 16 16 16 16 16 15 15 15 15 15 15
18 18 18 18 18 18 18 18 18 17 17 17 17 17 17 17 17 17 17 17 17 16 16 16 16 16 16 16 16 16 16 16 16 16 15 15 15 15 15 15 15 15 15
18 18 18 18 18 18 18 17 17 17 17 17 17 17 17 17 17 17 17 17 17 16 16 16 16 16 16 16 16 16 16 15 15 15 15 15 15 15 15 15 15 15 15
18 18 18 18 18 18 18 17 17 17 17 17 17 17 17 17 17 17 17 17 16 16 16 16 16 16 16 16 15 15 15 15 15 15 15 15 15 15 15 15 15 15 14
18 18 18 18 17 17 17 17 17 17 17 17 17 17 17 17 17 16 16 16 16 16 16 16 16 15 15 15 15 15 15 15 15 15 15 14 14 14 14 14 14 14 14
18 18 18 17 17 17 17 17 17 17 16 16 16 16 16 16 16 16 16 16 16 16 15 15 15 15 15 15 15 15 15 15 14 14 14 14 14 14 14 14 14 14 14
18 17 17 17 17 17 17 17 16 16 16 16 16 16 16 16 16 16 16 16 15 15 15 15 15 15 15 15 15 14 14 14 14 14 14 14 14 14 14 14 14 14 14
17 17 17 17 17 17 16 16 16 16 16 16 16 16 16 16 16 16 15 15 15 15 15 15 15 15 15 15 14 14 14 14 14 14 13 14 14 14 14 14 13 14 14
17 17 17 16 16 16 16 16 16 16 15 15 15 16 15 15 15 15 15 15 15 15 15 14 14 14 14 14 14 14 14 13 13 13 13 13 13 13 13 13 13 13 13
17 16 16 16 16 16 16 16 16 15 15 15 15 15 15 15 15 15 15 14 14 14 14 14 14 14 14 14 14 13 13 13 13 13 13 13 13 13 13 13 13 13 13
16 16 16 16 16 16 15 15 15 15 15 15 15 15 15 15 14 14 14 14 14 14 14 14 13 13 13 13 13 13 13 13 13 12 12 12 12 12 12 13 12 12 12
Wind_Speed
4 4 3 3 3 3 3 2 1 1 1 1 3 3 4 4 5 6 7 9 10 9 9 9 9 9 8 8 8 8 8 8 8 8 8 8 9 10 11 12 11 11 10
4 4 3 2 3 4 3 3 2 2 2 2 2 3 3 5 5 6 7 8 9 10 10 10 10 9 9 9 8 8 9 9 9 9 9 9 10 10 11 11 11 11 11
5 4 3 2 3 4 4 2 2 2 2 2 2 3 3 4 5 5 6 6 7 10 10 11 10 10 10 10 9 9 9 9 10 10 10 10 10 10 10 11 11 11 12
6 4 3 2 2 3 3 2 2 1 1 1 2 2 2 3 4 5 6 7 7 7 9 11 11 11 10 10 10 10 10 11 11 11 11 11 11 11 11 11 12 11 11
6 4 3 2 3 2 2 2 2 2 2 1 2 2 2 2 3 4 5 6 7 8 8 9 11 11 11 11 11 11 11 12 12 12 12 12 12 12 12 12 12 12 12
5 4 2 2 2 1 1 1 2 1 2 2 1 2 2 2 2 2 4 4 6 7 8 8 8 9 12 12 12 12 12 12 12 13 13 14 13 13 13 13 13 13 13
5 4 2 2 2 2 2 2 2 1 1 1 1 2 3 2 2 2 2 2 4 6 6 7 8 8 8 11 11 11 12 12 12 13 13 13 14 14 14 14 14 14 14
4 4 3 2 2 2 1 1 2 1 1 2 2 1 2 4 3 2 2 3 3 3 4 6 7 7 8 7 9 11 11 12 12 12 13 13 13 14 14 14 14 14 14
3 2 2 2 2 2 2 2 2 3 2 1 1 3 2 2 3 3 2 2 2 2 3 4 5 6 8 8 8 10 11 11 12 12 13 13 13 14 15 15 14 14 14
2 2 2 2 2 2 2 2 2 2 2 2 1 1 3 3 2 2 3 2 2 2 3 3 4 5 6 7 8 9 10 10 10 11 11 12 12 13 15 16 15 15 14
1 1 2 2 2 2 2 1 1 2 2 2 2 1 1 1 2 2 3 3 3 3 2 3 3 4 6 7 7 9 10 10 10 9 9 9 9 10 12 13 14 14 13
1 2 1 2 2 2 2 2 2 2 2 2 2 1 2 1 2 2 3 3 3 3 3 2 3 4 5 6 7 8 9 9 9 9 9 9 9 9 11 11 12 12 12
1 2 2 2 2 2 3 2 2 2 2 2 2 2 2 2 2 2 2 2 2 2 2 2 3 3 4 5 6 8 8 8 9 9 9 9 9 8 9 9 10 10 11
3 3 3 2 2 2 2 2 2 2 1 2 3 2 2 2 2 2 3 2 1 2 2 4 2 3 3 4 5 7 6 8 8 9 9 9 8 8 8 8 9 9 9
3 2 2 2 2 2 2 2 2 2 1 2 2 2 2 2 2 2 2 3 3 2 4 4 2 2 2 3 4 5 5 6 8 8 9 8 8 8 7 7 8 8 8
2 2 2 2 2 2 2 1 2 2 1 2 2 1 1 1 1 1 1 2 3 3 3 3 3 2 2 2 4 4 5 6 7 8 8 8 8 7 7 7 7 7 7
2 2 2 2 2 2 2 2 2 2 2 2 2 1 2 2 1 1 1 1 1 2 3 4 2 2 1 2 1 2 3 3 4 7 8 8 8 8 7 8 8 8 7
2 2 2 2 2 2 2 2 3 2 2 2 2 2 2 1 1 1 1 1 2 2 2 3 3 2 2 2 2 2 2 3 3 4 7 7 7 7 7 7 8 8 7
2 2 2 2 2 2 3 3 3 3 3 3 3 3 3 1 1 1 1 1 1 1 1 2 3 2 2 1 1 1 1 1 2 3 5 5 6 6 7 7 7 7 7
2 2 2 2 2 2 3 3 3 3 3 2 2 2 2 2 2 2 1 1 1 1 1 1 2 2 1 1 0 1 1 1 1 1 1 3 4 6 7 7 7 7 8
2 2 2 2 2 2 2 2 3 3 2 2 2 2 3 3 3 2 2 2 1 1 1 1 2 1 2 1 1 1 1 1 2 1 1 1 2 3 4 6 7 8 8
2 2 3 2 2 3 3 3 2 2 2 2 2 2 2 1 2 1 2 2 3 3 3 2 2 3 4 3 2 2 1 0 2 1 1 2 2 3 4 4 6 8 9
2 3 3 2 3 4 4 4 4 3 3 3 3 3 3 2 2 1 1 2 2 3 4 5 4 5 5 4 3 3 3 2 4 3 1 3 2 3 4 5 7 8 8
3 3 3 3 3 4 4 4 4 3 3 3 4 4 4 3 2 2 1 2 2 3 3 3 5 6 5 4 5 5 4 3 2 2 2 2 3 3 4 4 7 8 8
4 3 3 3 3 4 4 4 3 2 2 4 3 3 3 3 3 1 0 2 3 4 3 2 3 5 5 3 3 2 2 1 2 3 2 2 2 3 3 3 5 7 8
4 3 2 2 3 3 3 2 2 1 1 2 2 2 3 3 3 2 1 2 3 4 3 3 3 3 2 2 3 3 4 3 2 2 2 2 2 1 2 3 3 3 4
Wind_Direction
147 148 152 162 162 163 167 175 185 203 221 231 198 184 180 180 189 190 197 204 201 201 204 199 198 202 200 197 199 201 203 206 207 204 206 210 210 210 208 204 200 200 201
148 144 147 154 170 174 179 188 196 207 226 224 214 200 187 188 199 200 199 205 207 207 206 205 207 211 208 205 206 208 211 212 211 210 212 213 212 210 209 205 203 203 202
152 148 145 158 177 171 165 167 205 213 214 207 208 213 199 200 204 206 205 206 213 213 210 210 214 217 216 214 211 214 216 217 216 214 215 214 212 211 210 206 204 203 199
155 147 147 168 172 155 152 162 177 193 213 213 223 233 217 210 214 210 207 212 215 220 220 221 220 221 223 223 219 219 219 218 219 219 220 216 214 211 210 209 205 201 200
151 152 159 169 169 156 174 192 171 179 197 230 236 241 236 223 217 216 208 212 215 220 220 224 224 224 228 232 231 229 224 222 221 222 223 220 217 213 211 210 209 208 207
152 154 157 170 163 143 192 199 188 196 202 213 242 271 258 239 210 217 216 213 216 220 220 222 220 228 232 235 236 233 229 226 223 223 223 220 217 216 213 212 213 213 213
161 154 158 161 148 163 199 200 176 193 222 166 69 338 321 290 240 228 223 221 224 221 217 216 216 221 230 236 235 236 235 231 230 228 226 223 221 216 213 214 215 216 216
162 159 157 171 166 170 205 207 166 175 212 159 140 106 342 337 325 262 218 213 224 211 211 218 217 220 223 223 232 236 235 233 234 233 228 225 222 219 217 216 217 217 219
169 165 173 171 173 173 194 210 188 175 205 242 171 155 159 242 297 313 283 251 235 230 232 217 213 223 224 218 223 232 233 233 233 232 228 222 223 224 221 220 220 219 221
162 165 167 180 186 179 188 220 197 179 168 222 265 210 190 180 185 295 312 296 270 243 234 220 215 217 220 216 219 226 228 233 233 231 228 221 223 225 222 220 221 221 223
195 184 177 188 192 187 196 206 202 185 178 191 208 228 211 193 173 188 274 304 314 287 251 228 215 208 216 217 221 228 225 226 226 224 224 220 222 221 218 217 219 220 220
261 248 221 211 206 202 204 202 202 199 193 191 198 193 184 194 208 191 232 265 281 286 276 248 224 217 213 217 232 235 222 219 217 219 223 220 219 218 214 213 217 218 217
238 253 238 219 219 217 213 206 204 218 208 206 211 219 214 219 204 191 200 247 271 286 290 270 237 217 215 213 227 231 223 216 213 214 215 215 213 215 217 216 216 218 219
220 231 222 224 227 215 211 202 215 233 225 227 238 230 230 246 220 194 193 197 268 301 295 273 269 231 219 211 224 222 219 216 217 214 214 214 214 214 215 217 217 218 219
214 217 215 216 224 213 209 196 216 243 248 249 253 246 240 259 246 224 202 185 185 241 273 270 275 266 226 209 222 212 208 217 219 215 212 213 214 214 214 215 216 218 220
217 199 218 219 216 204 202 199 225 244 240 260 244 254 268 277 283 265 226 206 188 197 242 259 261 275 251 235 232 214 212 218 214 210 211 212 212 212 211 211 212 213 213
206 202 208 207 209 209 206 191 224 224 224 260 270 254 268 272 279 281 262 212 210 194 237 280 282 294 280 257 255 213 211 204 208 211 208 207 208 209 208 209 208 206 205
224 216 207 208 216 217 218 205 221 235 224 239 257 259 271 283 292 273 253 252 242 222 209 266 296 303 284 248 244 233 219 204 196 206 207 206 207 207 206 207 207 205 205
216 210 194 209 225 230 234 232 221 226 229 228 230 230 245 236 275 283 267 275 264 268 222 229 278 289 292 292 292 288 285 263 212 201 203 208 209 204 207 213 214 211 212
193 202 204 219 231 237 243 234 221 229 236 244 241 232 225 208 219 238 263 263 255 254 242 232 279 297 293 288 312 295 313 305 267 225 207 198 213 217 219 220 219 217 218
212 212 214 229 239 237 245 225 223 222 223 234 244 243 226 208 210 225 243 239 221 227 224 232 260 290 285 284 253 239 254 288 281 268 267 250 218 230 234 230 226 225 223
242 232 224 231 247 259 262 251 233 236 231 216 238 262 255 242 249 270 262 253 222 216 223 226 245 248 256 243 234 231 226 261 277 268 195 265 233 241 244 239 233 226 226
245 252 237 237 250 258 257 250 238 234 240 235 227 233 252 264 260 256 301 323 292 252 222 213 226 242 242 234 214 226 222 215 241 239 185 262 262 255 253 246 236 232 228
235 244 239 229 238 264 264 253 251 248 243 244 229 216 218 242 254 255 286 322 310 292 260 230 226 238 240 232 212 211 214 225 264 267 183 235 259 254 256 248 239 232 229
228 239 239 225 234 262 258 252 247 237 243 255 244 225 215 231 248 244 258 300 309 307 308 267 238 235 236 233 199 169 169 174 264 269 225 194 247 265 267 261 252 239 234
216 221 224 228 227 252 262 259 246 196 250 274 283 271 246 239 249 238 202 222 264 283 304 328 327 308 284 255 199 193 198 201 233 254 245 184 232 251 282 272 265 256 244
Height
1533 1533 1534 1534 1535 1535 1536 1536 1537 1537 1537 1537 1538 1538 1538 1538 1539 1539 1539 1539 1539 1539 1539 1539 1539 1539 1538 1538 1539 1539 1539 1539 1540 1541 1542 1543 1544 1544 1546 1546 1547 1549 1550
1534 1534 1534 1535 1535 1536 1536 1536 1537 1537 1537 1537 1537 1537 1538 1538 1538 1538 1538 1538 1538 1538 1538 1538 1538 1538 1538 1537 1537 1537 1537 1538 1538 1539 1540 1541 1541 1542 1543 1545 1546 1547 1548
1534 1535 1535 1535 1536 1536 1536 1536 1537 1537 1537 1537 1537 1537 1537 1537 1537 1537 1538 1538 1537 1537 1537 1537 1536 1536 1536 1536 1536 1536 1536 1536 1536 1537 1538 1538 1539 1540 1541 1542 1543 1545 1546
1535 1536 1536 1536 1536 1536 1536 1536 1536 1536 1536 1536 1537 1537 1537 1537 1536 1536 1536 1536 1536 1536 1536 1536 1536 1535 1535 1535 1534 1534 1534 1534 1534 1534 1535 1536 1536 1537 1539 1540 1541 1542 1543
1536 1536 1536 1536 1536 1536 1536 1536 1536 1536 1536 1536 1536 1536 1536 1536 1536 1535 1535 1535 1535 1535 1535 1535 1534 1534 1533 1533 1532 1532 1532 1531 1532 1532 1532 1533 1534 1535 1536 1537 1538 1540 1541
1536 1536 1536 1536 1536 1536 1536 1536 1536 1536 1536 1536 1535 1535 1535 1535 1534 1534 1534 1534 1533 1533 1533 1533 1532 1532 1532 1531 1530 1530 1529 1529 1529 1529 1530 1530 1531 1532 1533 1534 1536 1537 1538
1536 1536 1536 1536 1536 1535 1535 1535 1535 1535 1535 1535 1535 1534 1534 1534 1533 1533 1532 1532 1531 1531 1531 1531 1531 1530 1530 1529 1528 1528 1527 1527 1527 1527 1527 1528 1529 1529 1530 1531 1533 1534 1535
1536 1536 1535 1535 1535 1535 1534 1534 1534 1534 1534 1534 1534 1533 1533 1533 1532 1531 1531 1530 1530 1530 1530 1530 1529 1529 1528 1527 1526 1525 1525 1524 1524 1524 1524 1525 1525 1526 1527 1528 1529 1531 1532
1535 1535 1534 1534 1534 1534 1533 1533 1533 1533 1532 1533 1533 1533 1532 1531 1530 1530 1530 1529 1529 1528 1528 1528 1527 1526 1526 1525 1524 1524 1523 1522 1522 1521 1521 1521 1522 1523 1523 1525 1526 1527 1528
1534 1534 1534 1533 1533 1533 1532 1532 1531 1531 1531 1531 1531 1531 1531 1531 1530 1529 1529 1528 1527 1527 1526 1526 1525 1524 1524 1524 1523 1522 1521 1520 1519 1519 1518 1518 1518 1518 1519 1521 1522 1524 1525
1533 1533 1533 1532 1532 1531 1531 1531 1530 1529 1529 1529 1529 1529 1529 1529 1528 1528 1526 1526 1526 1525 1524 1524 1523 1522 1522 1521 1521 1520 1519 1518 1517 1517 1516 1516 1516 1515 1516 1517 1519 1520 1522
1531 1531 1531 1531 1530 1530 1530 1529 1529 1528 1527 1527 1527 1527 1527 1527 1526 1525 1525 1524 1523 1523 1523 1522 1521 1520 1520 1519 1518 1518 1517 1517 1516 1515 1515 1514 1514 1513 1513 1514 1516 1517 1519
1530 1529 1529 1529 1529 1528 1528 1527 1527 1526 1526 1525 1525 1525 1525 1525 1524 1524 1523 1522 1522 1521 1520 1520 1519 1518 1518 1517 1516 1516 1515 1515 1514 1513 1513 1513 1513 1512 1512 1512 1513 1515 1516
1528 1528 1528 1527 1527 1527 1526 1525 1525 1524 1524 1524 1523 1523 1523 1523 1522 1522 1521 1521 1519 1519 1518 1518 1517 1516 1516 1515 1514 1513 1513 1512 1512 1511 1511 1511 1511 1511 1511 1511 1511 1513 1514
1526 1526 1526 1525 1525 1525 1524 1524 1523 1522 1522 1522 1521 1521 1520 1520 1520 1520 1519 1519 1518 1516 1515 1515 1514 1514 1513 1512 1512 1511 1510 1510 1510 1510 1509 1509 1509 1509 1509 1509 1510 1510 1511
1525 1524 1524 1523 1523 1523 1522 1521 1521 1520 1520 1519 1518 1518 1517 1517 1517 1517 1516 1516 1516 1515 1513 1512 1512 1511 1510 1510 1509 1509 1508 1507 1507 1507 1507 1507 1507 1507 1507 1508 1508 1508 1509
1523 1522 1522 1521 1521 1520 1520 1519 1518 1518 1517 1517 1516 1516 1515 1515 1515 1514 1514 1513 1513 1513 1511 1510 1509 1509 1508 1507 1506 1506 1505 1505 1504 1505 1505 1505 1505 1505 1505 1505 1506 1506 1506
1520 1520 1519 1519 1518 1518 1517 1516 1515 1515 1515 1514 1514 1514 1513 1513 1512 1512 1511 1511 1510 1510 1509 1507 1506 1506 1505 1505 1504 1503 1503 1503 1502 1502 1502 1502 1503 1503 1503 1503 1503 1504 1504
1518 1518 1517 1516 1516 1515 1514 1513 1512 1512 1511 1512 1512 1511 1511 1511 1510 1510 1509 1508 1507 1507 1506 1505 1503 1503 1503 1502 1502 1501 1500 1500 1500 1500 1500 1500 1500 1500 1500 1500 1501 1501 1501
1516 1515 1515 1514 1513 1512 1511 1510 1509 1508 1508 1509 1509 1509 1509 1509 1508 1507 1506 1505 1505 1504 1503 1502 1501 1500 1500 1499 1499 1498 1498 1497 1497 1498 1498 1498 1498 1498 1498 1498 1498 1498 1498
1514 1513 1513 1512 1511 1510 1508 1507 1506 1505 1506 1506 1506 1506 1506 1506 1505 1505 1504 1502 1502 1501 1500 1499 1498 1497 1496 1496 1496 1496 1495 1495 1495 1495 1495 1495 1495 1495 1495 1495 1495 1495 1495
1511 1511 1510 1509 1508 1507 1506 1505 1504 1504 1504 1504 1503 1503 1503 1503 1502 1502 1501 1500 1499 1498 1497 1496 1495 1494 1493 1493 1493 1493 1493 1492 1492 1493 1492 1492 1493 1492 1492 1492 1492 1492 1492
1508 1508 1507 1506 1505 1504 1504 1503 1502 1502 1501 1501 1501 1500 1500 1500 1499 1498 1497 1496 1496 1495 1495 1494 1492 1491 1490 1490 1490 1490 1489 1489 1489 1489 1489 1488 1489 1488 1489 1489 1489 1489 1489
1506 1505 1504 1503 1502 1502 1501 1500 1500 1499 1498 1498 1498 1497 1497 1496 1496 1495 1494 1493 1492 1491 1491 1490 1489 1488 1488 1487 1487 1487 1486 1486 1486 1486 1486 1485 1485 1485 1485 1486 1486 1486 1486
1503 1502 1501 1500 1499 1499 1498 1497 1497 1495 1495 1494 1494 1494 1493 1493 1492 1492 1491 1489 1488 1487 1487 1487 1486 1485 1485 1484 1484 1483 1482 1482 1481 1482 1482 1482 1481 1481 1481 1482 1482 1482 1482
1499 1499 1498 1497 1497 1496 1495 1494 1494 1493 1491 1491 1490 1490 1489 1489 1489 1488 1487 1486 1485 1484 1483 1483 1482 1481 1481 1480 1480 1480 1479 1479 1478 1478 1478 1479 1478 1478 1478 1478 1478 1478 1478